Year,Month,Day,Hour,Minute,Value (Times are PST for temperature in C)
2023,03,29,00,00,2.90
2023,03,29,00,01,2.90
2023,03,29,00,02,2.80
2023,03,29,00,03,2.80
2023,03,29,00,04,2.80
2023,03,29,00,05,2.80
2023,03,29,00,06,2.80
2023,03,29,00,07,2.80
2023,03,29,00,08,2.70
2023,03,29,00,09,2.70
2023,03,29,00,10,2.70
2023,03,29,00,11,2.70
2023,03,29,00,12,2.70
2023,03,29,00,13,2.60
2023,03,29,00,14,2.60
2023,03,29,00,15,2.60
2023,03,29,00,16,2.60
2023,03,29,00,17,2.60
2023,03,29,00,18,2.60
2023,03,29,00,19,2.70
2023,03,29,00,20,2.70
2023,03,29,00,21,2.60
2023,03,29,00,22,2.60
2023,03,29,00,23,2.70
2023,03,29,00,24,2.60
2023,03,29,00,25,2.60
2023,03,29,00,26,2.60
2023,03,29,00,27,2.60
2023,03,29,00,28,2.60
2023,03,29,00,29,2.60
2023,03,29,00,30,2.60
2023,03,29,00,31,2.60
2023,03,29,00,32,2.60
2023,03,29,00,33,2.60
2023,03,29,00,34,2.60
2023,03,29,00,35,2.60
2023,03,29,00,36,2.60
2023,03,29,00,37,2.60
2023,03,29,00,38,2.60
2023,03,29,00,39,2.60
2023,03,29,00,40,2.60
2023,03,29,00,41,2.60
2023,03,29,00,42,2.60
2023,03,29,00,43,2.50
2023,03,29,00,44,2.50
2023,03,29,00,45,2.50
2023,03,29,00,46,2.50
2023,03,29,00,47,2.50
2023,03,29,00,48,2.40
2023,03,29,00,49,2.40
2023,03,29,00,50,2.40
2023,03,29,00,51,2.40
2023,03,29,00,52,2.40
2023,03,29,00,53,2.40
2023,03,29,00,54,2.40
2023,03,29,00,55,2.40
2023,03,29,00,56,2.40
2023,03,29,00,57,2.40
2023,03,29,00,58,2.40
2023,03,29,00,59,2.40
2023,03,29,01,00,2.30
2023,03,29,01,01,2.30
2023,03,29,01,02,2.30
2023,03,29,01,03,2.30
2023,03,29,01,04,2.30
2023,03,29,01,05,2.30
2023,03,29,01,06,2.30
2023,03,29,01,07,2.30
2023,03,29,01,08,2.30
2023,03,29,01,09,2.30
2023,03,29,01,10,2.30
2023,03,29,01,11,2.30
2023,03,29,01,12,2.30
2023,03,29,01,13,2.30
2023,03,29,01,14,2.30
2023,03,29,01,15,2.30
2023,03,29,01,16,2.30
2023,03,29,01,17,2.30
2023,03,29,01,18,2.20
2023,03,29,01,19,2.20
2023,03,29,01,20,2.20
2023,03,29,01,21,2.20
2023,03,29,01,22,2.20
2023,03,29,01,23,2.20
2023,03,29,01,24,2.20
2023,03,29,01,25,2.20
2023,03,29,01,26,2.20
2023,03,29,01,27,2.20
2023,03,29,01,28,2.20
2023,03,29,01,29,2.10
2023,03,29,01,30,2.10
2023,03,29,01,31,2.10
2023,03,29,01,32,2.10
2023,03,29,01,33,2.10
2023,03,29,01,34,2.10
2023,03,29,01,35,2.10
2023,03,29,01,36,2.10
2023,03,29,01,37,2.10
2023,03,29,01,38,2.10
2023,03,29,01,39,2.10
2023,03,29,01,40,2.10
2023,03,29,01,41,2.10
2023,03,29,01,42,2.10
2023,03,29,01,43,2.10
2023,03,29,01,44,2.10
2023,03,29,01,45,2.10
2023,03,29,01,46,2.10
2023,03,29,01,47,2.10
2023,03,29,01,48,2.10
2023,03,29,01,49,2.10
2023,03,29,01,50,2.00
2023,03,29,01,51,2.00
2023,03,29,01,52,2.00
2023,03,29,01,53,2.00
2023,03,29,01,54,1.90
2023,03,29,01,55,1.90
2023,03,29,01,56,1.90
2023,03,29,01,57,1.90
2023,03,29,01,58,1.90
2023,03,29,01,59,1.80
2023,03,29,02,00,1.80
2023,03,29,02,01,1.80
2023,03,29,02,02,1.80
2023,03,29,02,03,1.80
2023,03,29,02,04,1.80
2023,03,29,02,05,1.80
2023,03,29,02,06,1.80
2023,03,29,02,07,1.70
2023,03,29,02,08,1.70
2023,03,29,02,09,1.70
2023,03,29,02,10,1.70
2023,03,29,02,11,1.70
2023,03,29,02,12,1.70
2023,03,29,02,13,1.70
2023,03,29,02,14,1.70
2023,03,29,02,15,1.70
2023,03,29,02,16,1.70
2023,03,29,02,17,1.70
2023,03,29,02,18,1.70
2023,03,29,02,19,1.70
2023,03,29,02,20,1.60
2023,03,29,02,21,1.60
2023,03,29,02,22,1.60
2023,03,29,02,23,1.60
2023,03,29,02,24,1.60
2023,03,29,02,25,1.50
2023,03,29,02,26,1.50
2023,03,29,02,27,1.50
2023,03,29,02,28,1.40
2023,03,29,02,29,1.40
2023,03,29,02,30,1.40
2023,03,29,02,31,1.40
2023,03,29,02,32,1.40
2023,03,29,02,33,1.40
2023,03,29,02,34,1.30
2023,03,29,02,35,1.40
2023,03,29,02,36,1.30
2023,03,29,02,37,1.30
2023,03,29,02,38,1.30
2023,03,29,02,39,1.30
2023,03,29,02,40,1.30
2023,03,29,02,41,1.30
2023,03,29,02,42,1.30
2023,03,29,02,43,1.30
2023,03,29,02,44,1.30
2023,03,29,02,45,1.30
2023,03,29,02,46,1.30
2023,03,29,02,47,1.30
2023,03,29,02,48,1.30
2023,03,29,02,49,1.30
2023,03,29,02,50,1.30
2023,03,29,02,51,1.30
2023,03,29,02,52,1.30
2023,03,29,02,53,1.30
2023,03,29,02,54,1.30
2023,03,29,02,55,1.30
2023,03,29,02,56,1.30
2023,03,29,02,57,1.30
2023,03,29,02,58,1.40
2023,03,29,02,59,1.40
2023,03,29,03,00,1.40
2023,03,29,03,01,1.40
2023,03,29,03,02,1.40
2023,03,29,03,03,1.50
2023,03,29,03,04,1.60
2023,03,29,03,05,1.50
2023,03,29,03,06,1.60
2023,03,29,03,07,1.60
2023,03,29,03,08,1.60
2023,03,29,03,09,1.60
2023,03,29,03,10,1.50
2023,03,29,03,11,1.50
2023,03,29,03,12,1.50
2023,03,29,03,13,1.40
2023,03,29,03,14,1.40
2023,03,29,03,15,1.40
2023,03,29,03,16,1.40
2023,03,29,03,17,1.30
2023,03,29,03,18,1.30
2023,03,29,03,19,1.30
2023,03,29,03,20,1.30
2023,03,29,03,21,1.30
2023,03,29,03,22,1.30
2023,03,29,03,23,1.30
2023,03,29,03,24,1.30
2023,03,29,03,25,1.30
2023,03,29,03,26,1.30
2023,03,29,03,27,1.30
2023,03,29,03,28,1.30
2023,03,29,03,29,1.30
2023,03,29,03,30,1.30
2023,03,29,03,31,1.30
2023,03,29,03,32,1.30
2023,03,29,03,33,1.30
2023,03,29,03,34,1.30
2023,03,29,03,35,1.30
2023,03,29,03,36,1.30
2023,03,29,03,37,1.30
2023,03,29,03,38,1.30
2023,03,29,03,39,1.30
2023,03,29,03,40,1.20
2023,03,29,03,41,1.20
2023,03,29,03,42,1.20
2023,03,29,03,43,1.20
2023,03,29,03,44,1.20
2023,03,29,03,45,1.20
2023,03,29,03,46,1.20
2023,03,29,03,47,1.20
2023,03,29,03,48,1.20
2023,03,29,03,49,1.20
2023,03,29,03,50,1.20
2023,03,29,03,51,1.20
2023,03,29,03,52,1.20
2023,03,29,03,53,1.20
2023,03,29,03,54,1.20
2023,03,29,03,55,1.20
2023,03,29,03,56,1.20
2023,03,29,03,57,1.20
2023,03,29,03,58,1.20
2023,03,29,03,59,1.20
2023,03,29,04,00,1.20
2023,03,29,04,01,1.20
2023,03,29,04,02,1.20
2023,03,29,04,03,1.20
2023,03,29,04,04,1.20
2023,03,29,04,05,1.20
2023,03,29,04,06,1.20
2023,03,29,04,07,1.20
2023,03,29,04,08,1.20
2023,03,29,04,09,1.20
2023,03,29,04,10,1.10
2023,03,29,04,11,1.10
2023,03,29,04,12,1.10
2023,03,29,04,13,1.10
2023,03,29,04,14,1.10
2023,03,29,04,15,1.10
2023,03,29,04,16,1.10
2023,03,29,04,17,1.10
2023,03,29,04,18,1.10
2023,03,29,04,19,1.10
2023,03,29,04,20,1.10
2023,03,29,04,21,1.10
2023,03,29,04,22,1.10
2023,03,29,04,23,1.10
2023,03,29,04,24,1.10
2023,03,29,04,25,1.10
2023,03,29,04,26,1.10
2023,03,29,04,27,1.00
2023,03,29,04,28,1.00
2023,03,29,04,29,1.00
2023,03,29,04,30,1.00
2023,03,29,04,31,1.00
2023,03,29,04,32,1.00
2023,03,29,04,33,1.00
2023,03,29,04,34,1.00
2023,03,29,04,35,0.90
2023,03,29,04,36,0.90
2023,03,29,04,37,0.90
2023,03,29,04,38,0.90
2023,03,29,04,39,0.90
2023,03,29,04,40,0.90
2023,03,29,04,41,0.90
2023,03,29,04,42,0.90
2023,03,29,04,43,0.90
2023,03,29,04,44,0.90
2023,03,29,04,45,0.90
2023,03,29,04,46,0.90
2023,03,29,04,47,0.80
2023,03,29,04,48,0.80
2023,03,29,04,49,0.80
2023,03,29,04,50,0.80
2023,03,29,04,51,0.80
2023,03,29,04,52,0.80
2023,03,29,04,53,0.80
2023,03,29,04,54,0.80
2023,03,29,04,55,0.80
2023,03,29,04,56,0.80
2023,03,29,04,57,0.70
2023,03,29,04,58,0.70
2023,03,29,04,59,0.70
2023,03,29,05,00,0.70
2023,03,29,05,01,0.70
2023,03,29,05,02,0.70
2023,03,29,05,03,0.60
2023,03,29,05,04,0.60
2023,03,29,05,05,0.60
2023,03,29,05,06,0.60
2023,03,29,05,07,0.60
2023,03,29,05,08,0.60
2023,03,29,05,09,0.60
2023,03,29,05,10,0.50
2023,03,29,05,11,0.50
2023,03,29,05,12,0.50
2023,03,29,05,13,0.50
2023,03,29,05,14,0.40
2023,03,29,05,15,0.40
2023,03,29,05,16,0.40
2023,03,29,05,17,0.40
2023,03,29,05,18,0.40
2023,03,29,05,19,0.40
2023,03,29,05,20,0.40
2023,03,29,05,21,0.40
2023,03,29,05,22,0.40
2023,03,29,05,23,0.30
2023,03,29,05,24,0.30
2023,03,29,05,25,0.30
2023,03,29,05,26,0.30
2023,03,29,05,27,0.30
2023,03,29,05,28,0.30
2023,03,29,05,29,0.30
2023,03,29,05,30,0.30
2023,03,29,05,31,0.30
2023,03,29,05,32,0.30
2023,03,29,05,33,0.30
2023,03,29,05,34,0.30
2023,03,29,05,35,0.30
2023,03,29,05,36,0.30
2023,03,29,05,37,0.30
2023,03,29,05,38,0.30
2023,03,29,05,39,0.20
2023,03,29,05,40,0.20
2023,03,29,05,41,0.20
2023,03,29,05,42,0.20
2023,03,29,05,43,0.20
2023,03,29,05,44,0.20
2023,03,29,05,45,0.20
2023,03,29,05,46,0.20
2023,03,29,05,47,0.20
2023,03,29,05,48,0.20
2023,03,29,05,49,0.10
2023,03,29,05,50,0.20
2023,03,29,05,51,0.10
2023,03,29,05,52,0.10
2023,03,29,05,53,0.10
2023,03,29,05,54,0.10
2023,03,29,05,55,0.10
2023,03,29,05,56,0.10
2023,03,29,05,57,0.10
2023,03,29,05,58,0.10
2023,03,29,05,59,0.10
2023,03,29,06,00,0.10
2023,03,29,06,01,0.10
2023,03,29,06,02,0.10
2023,03,29,06,03,0.10
2023,03,29,06,04,0.10
2023,03,29,06,05,0.10
2023,03,29,06,06,0.10
2023,03,29,06,07,0.10
2023,03,29,06,08,0.10
2023,03,29,06,09,0.10
2023,03,29,06,10,0.10
2023,03,29,06,11,0.10
2023,03,29,06,12,0.10
2023,03,29,06,13,0.20
2023,03,29,06,14,0.20
2023,03,29,06,15,0.20
2023,03,29,06,16,0.10
2023,03,29,06,17,0.10
2023,03,29,06,18,0.10
2023,03,29,06,19,0.10
2023,03,29,06,20,0.10
2023,03,29,06,21,0.10
2023,03,29,06,22,0.00
2023,03,29,06,23,0.00
2023,03,29,06,24,0.00
2023,03,29,06,25,0.00
2023,03,29,06,26,-0.10
2023,03,29,06,27,-0.10
2023,03,29,06,28,-0.10
2023,03,29,06,29,-0.10
2023,03,29,06,30,-0.10
2023,03,29,06,31,-0.10
2023,03,29,06,32,-0.10
2023,03,29,06,33,-0.10
2023,03,29,06,34,-0.10
2023,03,29,06,35,-0.10
2023,03,29,06,36,-0.10
2023,03,29,06,37,-0.10
2023,03,29,06,38,-0.20
2023,03,29,06,39,-0.20
2023,03,29,06,40,-0.20
2023,03,29,06,41,-0.20
2023,03,29,06,42,-0.20
2023,03,29,06,43,-0.20
2023,03,29,06,44,-0.20
2023,03,29,06,45,-0.30
2023,03,29,06,46,-0.30
2023,03,29,06,47,-0.30
2023,03,29,06,48,-0.30
2023,03,29,06,49,-0.30
2023,03,29,06,50,-0.30
2023,03,29,06,51,-0.30
2023,03,29,06,52,-0.30
2023,03,29,06,53,-0.30
2023,03,29,06,54,-0.30
2023,03,29,06,55,-0.30
2023,03,29,06,56,-0.30
2023,03,29,06,57,-0.30
2023,03,29,06,58,-0.30
2023,03,29,06,59,-0.30
2023,03,29,07,00,-0.30
2023,03,29,07,01,-0.30
2023,03,29,07,02,-0.30
2023,03,29,07,03,-0.30
2023,03,29,07,04,-0.20
2023,03,29,07,05,-0.20
2023,03,29,07,06,-0.10
2023,03,29,07,07,-0.10
2023,03,29,07,08,-0.10
2023,03,29,07,09,0.00
2023,03,29,07,10,0.00
2023,03,29,07,11,0.00
2023,03,29,07,12,0.00
2023,03,29,07,13,0.00
2023,03,29,07,14,-0.10
2023,03,29,07,15,-0.10
2023,03,29,07,16,-0.10
2023,03,29,07,17,-0.10
2023,03,29,07,18,-0.10
2023,03,29,07,19,-0.10
2023,03,29,07,20,-0.10
2023,03,29,07,21,-0.20
2023,03,29,07,22,-0.20
2023,03,29,07,23,-0.20
2023,03,29,07,24,-0.20
2023,03,29,07,25,-0.20
2023,03,29,07,26,-0.20
2023,03,29,07,27,-0.10
2023,03,29,07,28,-0.10
2023,03,29,07,29,-0.10
2023,03,29,07,30,0.00
2023,03,29,07,31,0.00
2023,03,29,07,32,0.00
2023,03,29,07,33,0.00
2023,03,29,07,34,0.10
2023,03,29,07,35,0.10
2023,03,29,07,36,0.10
2023,03,29,07,37,0.10
2023,03,29,07,38,0.10
2023,03,29,07,39,0.10
2023,03,29,07,40,0.10
2023,03,29,07,41,0.10
2023,03,29,07,42,0.00
2023,03,29,07,43,0.00
2023,03,29,07,44,0.00
2023,03,29,07,45,0.00
2023,03,29,07,46,0.00
2023,03,29,07,47,-0.10
2023,03,29,07,48,-0.10
2023,03,29,07,49,0.00
2023,03,29,07,50,0.00
2023,03,29,07,51,0.00
2023,03,29,07,52,0.00
2023,03,29,07,53,0.10
2023,03,29,07,54,0.10
2023,03,29,07,55,0.10
2023,03,29,07,56,0.20
2023,03,29,07,57,0.20
2023,03,29,07,58,0.30
2023,03,29,07,59,0.30
2023,03,29,08,00,0.30
2023,03,29,08,01,0.40
2023,03,29,08,02,0.40
2023,03,29,08,03,0.40
2023,03,29,08,04,0.50
2023,03,29,08,05,0.50
2023,03,29,08,06,0.60
2023,03,29,08,07,0.60
2023,03,29,08,08,0.60
2023,03,29,08,09,0.70
2023,03,29,08,10,0.80
2023,03,29,08,11,0.80
2023,03,29,08,12,0.90
2023,03,29,08,13,1.00
2023,03,29,08,14,1.00
2023,03,29,08,15,1.10
2023,03,29,08,16,1.10
2023,03,29,08,17,1.20
2023,03,29,08,18,1.20
2023,03,29,08,19,1.20
2023,03,29,08,20,1.30
2023,03,29,08,21,1.30
2023,03,29,08,22,1.30
2023,03,29,08,23,1.30
2023,03,29,08,24,1.30
2023,03,29,08,25,1.30
2023,03,29,08,26,1.30
2023,03,29,08,27,1.40
2023,03,29,08,28,1.40
2023,03,29,08,29,1.50
2023,03,29,08,30,1.50
2023,03,29,08,31,1.60
2023,03,29,08,32,1.60
2023,03,29,08,33,1.70
2023,03,29,08,34,1.70
2023,03,29,08,35,1.80
2023,03,29,08,36,1.80
2023,03,29,08,37,1.90
2023,03,29,08,38,1.90
2023,03,29,08,39,1.90
2023,03,29,08,40,2.00
2023,03,29,08,41,2.00
2023,03,29,08,42,2.10
2023,03,29,08,43,2.10
2023,03,29,08,44,2.20
2023,03,29,08,45,2.20
2023,03,29,08,46,2.30
2023,03,29,08,47,2.30
2023,03,29,08,48,2.30
2023,03,29,08,49,2.40
2023,03,29,08,50,2.40
2023,03,29,08,51,2.50
2023,03,29,08,52,2.60
2023,03,29,08,53,2.60
2023,03,29,08,54,2.70
2023,03,29,08,55,2.70
2023,03,29,08,56,2.80
2023,03,29,08,57,2.80
2023,03,29,08,58,2.80
2023,03,29,08,59,2.90
2023,03,29,09,00,2.90
2023,03,29,09,01,3.00
2023,03,29,09,02,3.00
2023,03,29,09,03,3.10
2023,03,29,09,04,3.10
2023,03,29,09,05,3.20
2023,03,29,09,06,3.20
2023,03,29,09,07,3.30
2023,03,29,09,08,3.30
2023,03,29,09,09,3.40
2023,03,29,09,10,3.40
2023,03,29,09,11,3.50
2023,03,29,09,12,3.60
2023,03,29,09,13,3.70
2023,03,29,09,14,3.80
2023,03,29,09,15,3.90
2023,03,29,09,16,4.00
2023,03,29,09,17,4.10
2023,03,29,09,18,4.20
2023,03,29,09,19,4.40
2023,03,29,09,20,4.50
2023,03,29,09,21,4.50
2023,03,29,09,22,4.60
2023,03,29,09,23,4.70
2023,03,29,09,24,4.90
2023,03,29,09,25,5.00
2023,03,29,09,26,5.20
2023,03,29,09,27,5.30
2023,03,29,09,28,5.40
2023,03,29,09,29,5.60
2023,03,29,09,30,5.70
2023,03,29,09,31,5.90
2023,03,29,09,32,6.10
2023,03,29,09,33,6.20
2023,03,29,09,34,6.30
2023,03,29,09,35,6.50
2023,03,29,09,36,6.60
2023,03,29,09,37,6.80
2023,03,29,09,38,6.90
2023,03,29,09,39,7.10
2023,03,29,09,40,7.20
2023,03,29,09,41,7.30
2023,03,29,09,42,7.40
2023,03,29,09,43,7.50
2023,03,29,09,44,7.60
2023,03,29,09,45,7.70
2023,03,29,09,46,7.80
2023,03,29,09,47,7.80
2023,03,29,09,48,7.80
2023,03,29,09,49,7.90
2023,03,29,09,50,8.00
2023,03,29,09,51,8.10
2023,03,29,09,52,8.20
2023,03,29,09,53,8.30
2023,03,29,09,54,8.40
2023,03,29,09,55,8.50
2023,03,29,09,56,8.60
2023,03,29,09,57,8.70
2023,03,29,09,58,8.80
2023,03,29,09,59,9.00
2023,03,29,10,00,9.10
2023,03,29,10,01,9.20
2023,03,29,10,02,9.40
2023,03,29,10,03,9.50
2023,03,29,10,04,9.70
2023,03,29,10,05,9.80
2023,03,29,10,06,10.00
2023,03,29,10,07,10.10
2023,03,29,10,08,10.20
2023,03,29,10,09,10.30
2023,03,29,10,10,10.40
2023,03,29,10,11,10.50
2023,03,29,10,12,10.50
2023,03,29,10,13,10.60
2023,03,29,10,14,10.70
2023,03,29,10,15,10.70
2023,03,29,10,16,10.80
2023,03,29,10,17,10.90
2023,03,29,10,18,11.00
2023,03,29,10,19,11.10
2023,03,29,10,20,11.20
2023,03,29,10,21,11.30
2023,03,29,10,22,11.40
2023,03,29,10,23,11.50
2023,03,29,10,24,11.60
2023,03,29,10,25,11.80
2023,03,29,10,26,11.90
2023,03,29,10,27,12.00
2023,03,29,10,28,12.00
2023,03,29,10,29,12.10
2023,03,29,10,30,12.20
2023,03,29,10,31,12.20
2023,03,29,10,32,12.30
2023,03,29,10,33,12.30
2023,03,29,10,34,12.50
2023,03,29,10,35,12.60
2023,03,29,10,36,12.70
2023,03,29,10,37,12.80
2023,03,29,10,38,12.90
2023,03,29,10,39,13.10
2023,03,29,10,40,13.10
2023,03,29,10,41,13.20
2023,03,29,10,42,13.20
2023,03,29,10,43,13.30
2023,03,29,10,44,13.40
2023,03,29,10,45,13.50
2023,03,29,10,46,13.50
2023,03,29,10,47,13.50
2023,03,29,10,48,13.50
2023,03,29,10,49,13.50
2023,03,29,10,50,13.50
2023,03,29,10,51,13.60
2023,03,29,10,52,13.60
2023,03,29,10,53,13.70
2023,03,29,10,54,13.70
2023,03,29,10,55,13.70
2023,03,29,10,56,13.70
2023,03,29,10,57,13.80
2023,03,29,10,58,13.90
2023,03,29,10,59,13.90
2023,03,29,11,00,13.90
2023,03,29,11,01,13.90
2023,03,29,11,02,13.90
2023,03,29,11,03,13.90
2023,03,29,11,04,13.80
2023,03,29,11,05,13.80
2023,03,29,11,06,13.80
2023,03,29,11,07,13.90
2023,03,29,11,08,13.90
2023,03,29,11,09,13.90
2023,03,29,11,10,14.00
2023,03,29,11,11,13.90
2023,03,29,11,12,13.90
2023,03,29,11,13,13.90
2023,03,29,11,14,14.00
2023,03,29,11,15,14.00
2023,03,29,11,16,13.90
2023,03,29,11,17,13.90
2023,03,29,11,18,13.90
2023,03,29,11,19,14.00
2023,03,29,11,20,14.00
2023,03,29,11,21,14.00
2023,03,29,11,22,13.90
2023,03,29,11,23,13.90
2023,03,29,11,24,13.90
2023,03,29,11,25,13.90
2023,03,29,11,26,13.90
2023,03,29,11,27,14.00
2023,03,29,11,28,14.00
2023,03,29,11,29,14.00
2023,03,29,11,30,14.10
2023,03,29,11,31,14.10
2023,03,29,11,32,14.10
2023,03,29,11,33,14.20
2023,03,29,11,34,14.30
2023,03,29,11,35,14.40
2023,03,29,11,36,14.50
2023,03,29,11,37,14.70
2023,03,29,11,38,14.80
2023,03,29,11,39,14.90
2023,03,29,11,40,15.00
2023,03,29,11,41,15.00
2023,03,29,11,42,15.00
2023,03,29,11,43,15.10
2023,03,29,11,44,15.20
2023,03,29,11,45,15.30
2023,03,29,11,46,15.40
2023,03,29,11,47,15.40
2023,03,29,11,48,15.50
2023,03,29,11,49,15.50
2023,03,29,11,50,15.50
2023,03,29,11,51,15.60
2023,03,29,11,52,15.60
2023,03,29,11,53,15.70
2023,03,29,11,54,15.80
2023,03,29,11,55,15.80
2023,03,29,11,56,15.80
2023,03,29,11,57,15.70
2023,03,29,11,58,15.50
2023,03,29,11,59,15.40
2023,03,29,12,00,15.30
2023,03,29,12,01,15.30
2023,03,29,12,02,15.40
2023,03,29,12,03,15.50
2023,03,29,12,04,15.50
2023,03,29,12,05,15.50
2023,03,29,12,06,15.50
2023,03,29,12,07,15.40
2023,03,29,12,08,15.40
2023,03,29,12,09,15.40
2023,03,29,12,10,15.40
2023,03,29,12,11,15.30
2023,03,29,12,12,15.30
2023,03,29,12,13,15.30
2023,03,29,12,14,15.30
2023,03,29,12,15,15.40
2023,03,29,12,16,15.50
2023,03,29,12,17,15.50
2023,03,29,12,18,15.60
2023,03,29,12,19,15.70
2023,03,29,12,20,15.80
2023,03,29,12,21,15.90
2023,03,29,12,22,15.90
2023,03,29,12,23,15.90
2023,03,29,12,24,15.90
2023,03,29,12,25,15.90
2023,03,29,12,26,15.90
2023,03,29,12,27,15.90
2023,03,29,12,28,15.90
2023,03,29,12,29,15.90
2023,03,29,12,30,15.90
2023,03,29,12,31,15.90
2023,03,29,12,32,15.90
2023,03,29,12,33,15.80
2023,03,29,12,34,15.70
2023,03,29,12,35,15.70
2023,03,29,12,36,15.60
2023,03,29,12,37,15.50
2023,03,29,12,38,15.50
2023,03,29,12,39,15.50
2023,03,29,12,40,15.50
2023,03,29,12,41,15.60
2023,03,29,12,42,15.60
2023,03,29,12,43,15.60
2023,03,29,12,44,15.70
2023,03,29,12,45,15.70
2023,03,29,12,46,15.70
2023,03,29,12,47,15.70
2023,03,29,12,48,15.70
2023,03,29,12,49,15.80
2023,03,29,12,50,15.80
2023,03,29,12,51,15.90
2023,03,29,12,52,16.00
2023,03,29,12,53,16.10
2023,03,29,12,54,16.10
2023,03,29,12,55,16.20
2023,03,29,12,56,16.20
2023,03,29,12,57,16.30
2023,03,29,12,58,16.40
2023,03,29,12,59,16.40
2023,03,29,13,00,16.50
2023,03,29,13,01,16.60
2023,03,29,13,02,16.60
2023,03,29,13,03,16.70
2023,03,29,13,04,16.70
2023,03,29,13,05,16.70
2023,03,29,13,06,16.70
2023,03,29,13,07,16.70
2023,03,29,13,08,16.80
2023,03,29,13,09,16.80
2023,03,29,13,10,16.80
2023,03,29,13,11,16.80
2023,03,29,13,12,16.80
2023,03,29,13,13,16.80
2023,03,29,13,14,16.70
2023,03,29,13,15,16.70
2023,03,29,13,16,16.70
2023,03,29,13,17,16.80
2023,03,29,13,18,16.80
2023,03,29,13,19,16.80
2023,03,29,13,20,16.80
2023,03,29,13,21,16.80
2023,03,29,13,22,16.80
2023,03,29,13,23,16.80
2023,03,29,13,24,16.80
2023,03,29,13,25,16.80
2023,03,29,13,26,16.80
2023,03,29,13,27,16.70
2023,03,29,13,28,16.60
2023,03,29,13,29,16.60
2023,03,29,13,30,16.60
2023,03,29,13,31,16.60
2023,03,29,13,32,16.60
2023,03,29,13,33,16.70
2023,03,29,13,34,16.70
2023,03,29,13,35,16.80
2023,03,29,13,36,16.80
2023,03,29,13,37,16.90
2023,03,29,13,38,16.90
2023,03,29,13,39,16.90
2023,03,29,13,40,17.00
2023,03,29,13,41,17.10
2023,03,29,13,42,17.10
2023,03,29,13,43,17.20
2023,03,29,13,44,17.30
2023,03,29,13,45,17.40
2023,03,29,13,46,17.40
2023,03,29,13,47,17.40
2023,03,29,13,48,17.30
2023,03,29,13,49,17.40
2023,03,29,13,50,17.40
2023,03,29,13,51,17.40
2023,03,29,13,52,17.40
2023,03,29,13,53,17.30
2023,03,29,13,54,17.30
2023,03,29,13,55,17.40
2023,03,29,13,56,17.40
2023,03,29,13,57,17.30
2023,03,29,13,58,17.30
2023,03,29,13,59,17.30
2023,03,29,14,00,17.20
2023,03,29,14,01,17.30
2023,03,29,14,02,17.20
2023,03,29,14,03,17.20
2023,03,29,14,04,17.10
2023,03,29,14,05,17.00
2023,03,29,14,06,16.90
2023,03,29,14,07,16.90
2023,03,29,14,08,16.90
2023,03,29,14,09,16.90
2023,03,29,14,10,16.90
2023,03,29,14,11,16.80
2023,03,29,14,12,16.80
2023,03,29,14,13,16.80
2023,03,29,14,14,16.80
2023,03,29,14,15,16.80
2023,03,29,14,16,16.80
2023,03,29,14,17,16.80
2023,03,29,14,18,16.90
2023,03,29,14,19,16.90
2023,03,29,14,20,16.90
2023,03,29,14,21,16.90
2023,03,29,14,22,16.90
2023,03,29,14,23,16.90
2023,03,29,14,24,16.80
2023,03,29,14,25,16.80
2023,03,29,14,26,16.80
2023,03,29,14,27,16.90
2023,03,29,14,28,16.90
2023,03,29,14,29,17.00
2023,03,29,14,30,17.00
2023,03,29,14,31,17.10
2023,03,29,14,32,17.10
2023,03,29,14,33,17.10
2023,03,29,14,34,17.10
2023,03,29,14,35,17.10
2023,03,29,14,36,17.10
2023,03,29,14,37,17.10
2023,03,29,14,38,17.00
2023,03,29,14,39,16.80
2023,03,29,14,40,16.70
2023,03,29,14,41,16.70
2023,03,29,14,42,16.70
2023,03,29,14,43,16.70
2023,03,29,14,44,16.80
2023,03,29,14,45,16.90
2023,03,29,14,46,16.90
2023,03,29,14,47,16.90
2023,03,29,14,48,16.90
2023,03,29,14,49,17.00
2023,03,29,14,50,17.00
2023,03,29,14,51,17.10
2023,03,29,14,52,17.10
2023,03,29,14,53,17.20
2023,03,29,14,54,17.20
2023,03,29,14,55,17.20
2023,03,29,14,56,17.20
2023,03,29,14,57,17.20
2023,03,29,14,58,17.10
2023,03,29,14,59,17.10
2023,03,29,15,00,17.10
2023,03,29,15,01,17.10
2023,03,29,15,02,17.20
2023,03,29,15,03,17.20
2023,03,29,15,04,17.20
2023,03,29,15,05,17.20
2023,03,29,15,06,17.20
2023,03,29,15,07,17.20
2023,03,29,15,08,17.20
2023,03,29,15,09,17.20
2023,03,29,15,10,17.30
2023,03,29,15,11,17.30
2023,03,29,15,12,17.30
2023,03,29,15,13,17.30
2023,03,29,15,14,17.30
2023,03,29,15,15,17.40
2023,03,29,15,16,17.40
2023,03,29,15,17,17.40
2023,03,29,15,18,17.40
2023,03,29,15,19,17.40
2023,03,29,15,20,17.30
2023,03,29,15,21,17.30
2023,03,29,15,22,17.30
2023,03,29,15,23,17.20
2023,03,29,15,24,17.20
2023,03,29,15,25,17.20
2023,03,29,15,26,17.20
2023,03,29,15,27,17.20
2023,03,29,15,28,17.20
2023,03,29,15,29,17.10
2023,03,29,15,30,17.10
2023,03,29,15,31,17.00
2023,03,29,15,32,17.00
2023,03,29,15,33,17.00
2023,03,29,15,34,17.00
2023,03,29,15,35,17.00
2023,03,29,15,36,17.00
2023,03,29,15,37,17.00
2023,03,29,15,38,17.00
2023,03,29,15,39,16.90
2023,03,29,15,40,16.90
2023,03,29,15,41,16.90
2023,03,29,15,42,16.90
2023,03,29,15,43,16.80
2023,03,29,15,44,16.80
2023,03,29,15,45,16.70
2023,03,29,15,46,16.80
2023,03,29,15,47,16.80
2023,03,29,15,48,16.80
2023,03,29,15,49,16.80
2023,03,29,15,50,16.80
2023,03,29,15,51,16.80
2023,03,29,15,52,16.90
2023,03,29,15,53,16.90
2023,03,29,15,54,16.90
2023,03,29,15,55,16.90
2023,03,29,15,56,16.90
2023,03,29,15,57,17.00
2023,03,29,15,58,17.00
2023,03,29,15,59,17.00
2023,03,29,16,00,17.00
2023,03,29,16,01,17.00
2023,03,29,16,02,17.00
2023,03,29,16,03,16.90
2023,03,29,16,04,16.90
2023,03,29,16,05,16.90
2023,03,29,16,06,16.90
2023,03,29,16,07,16.90
2023,03,29,16,08,16.90
2023,03,29,16,09,16.80
2023,03,29,16,10,16.80
2023,03,29,16,11,16.80
2023,03,29,16,12,16.80
2023,03,29,16,13,16.90
2023,03,29,16,14,16.90
2023,03,29,16,15,16.90
2023,03,29,16,16,17.00
2023,03,29,16,17,17.00
2023,03,29,16,18,17.10
2023,03,29,16,19,17.10
2023,03,29,16,20,17.10
2023,03,29,16,21,17.10
2023,03,29,16,22,17.10
2023,03,29,16,23,17.20
2023,03,29,16,24,17.20
2023,03,29,16,25,17.30
2023,03,29,16,26,17.30
2023,03,29,16,27,17.30
2023,03,29,16,28,17.40
2023,03,29,16,29,17.40
2023,03,29,16,30,17.40
2023,03,29,16,31,17.50
2023,03,29,16,32,17.50
2023,03,29,16,33,17.50
2023,03,29,16,34,17.40
2023,03,29,16,35,17.30
2023,03,29,16,36,17.30
2023,03,29,16,37,17.30
2023,03,29,16,38,17.40
2023,03,29,16,39,17.40
2023,03,29,16,40,17.40
2023,03,29,16,41,17.40
2023,03,29,16,42,17.40
2023,03,29,16,43,17.40
2023,03,29,16,44,17.40
2023,03,29,16,45,17.40
2023,03,29,16,46,17.30
2023,03,29,16,47,17.30
2023,03,29,16,48,17.20
2023,03,29,16,49,17.10
2023,03,29,16,50,17.10
2023,03,29,16,51,17.00
2023,03,29,16,52,17.00
2023,03,29,16,53,16.90
2023,03,29,16,54,16.90
2023,03,29,16,55,16.90
2023,03,29,16,56,16.90
2023,03,29,16,57,16.80
2023,03,29,16,58,16.80
2023,03,29,16,59,16.80
2023,03,29,17,00,16.70
2023,03,29,17,01,16.70
2023,03,29,17,02,16.60
2023,03,29,17,03,16.50
2023,03,29,17,04,16.50
2023,03,29,17,05,16.40
2023,03,29,17,06,16.30
2023,03,29,17,07,16.30
2023,03,29,17,08,16.30
2023,03,29,17,09,16.20
2023,03,29,17,10,16.20
2023,03,29,17,11,16.20
2023,03,29,17,12,16.20
2023,03,29,17,13,16.10
2023,03,29,17,14,16.10
2023,03,29,17,15,16.10
2023,03,29,17,16,16.10
2023,03,29,17,17,16.00
2023,03,29,17,18,16.00
2023,03,29,17,19,16.00
2023,03,29,17,20,16.00
2023,03,29,17,21,16.00
2023,03,29,17,22,16.00
2023,03,29,17,23,16.00
2023,03,29,17,24,16.00
2023,03,29,17,25,16.00
2023,03,29,17,26,16.00
2023,03,29,17,27,16.00
2023,03,29,17,28,15.90
2023,03,29,17,29,15.90
2023,03,29,17,30,15.90
2023,03,29,17,31,15.90
2023,03,29,17,32,15.80
2023,03,29,17,33,15.80
2023,03,29,17,34,15.80
2023,03,29,17,35,15.80
2023,03,29,17,36,15.80
2023,03,29,17,37,15.80
2023,03,29,17,38,15.80
2023,03,29,17,39,15.80
2023,03,29,17,40,15.70
2023,03,29,17,41,15.70
2023,03,29,17,42,15.70
2023,03,29,17,43,15.70